COSMOS 2251 DEB, 35671

Orbit data source: Space-Track

COSMOS 2251 DEB, 35671 is space debris in LEO originally from a launch on Wed, 16 Jun 1993 UTC launched from the Plesetsk Missile And Space Complex (PKMTR). The debris from Iridium 33, an American commercial communications satellite, has been tracked extensively since its accidental collision with the defunct Russian satellite Cosmos 2251 in 2009. This event, occurring at high speed in low Earth orbit (LEO), generated thousands of pieces of space debris, significantly increasing the risk of further collisions. The Iridium 33 debris cloud has impacted space traffic management and orbital debris mitigation strategies, making it a subject of ongoing study in space situational awareness.

Loading next visibility...
Identifier
35671, 1993-036APN
Orbit
LEO
Country
Flag of CISCIS
Related business
Manufacturer
Unknown
Mission
Spacecraft
Bus & Motor
Unknown
Mass
Unknown
Launch date (UTC)
1993-06-16 (33 years ago)
Launch vehicle
Unknown
Launch site
Plesetsk Missile And Space Complex (PKMTR)
Object type
Payload
Rocket body
Debris
Shape & HBR
Unknown shape, 0.1 m
Radar Cross Section
Small (<0.1 m²)

Expand to show TLE details & history
Last TLE update: 2 days ago

TLE from 2 days ago
0 COSMOS 2251 DEB
1 35671U 93036APN 26206.47285477  .00000661  00000-0  18119-3 0  9999
2 35671  74.0174  17.8239 0039715 137.0364 254.3193 14.48645418900175
Epoch: 2026-07-25T11:20Z
TLE epoch observation values (Epoch: 2026-07-25T11:20:54.652Z)
Latitude
29.65743°
Longitude
-86.25296°
Altitude
741.207 km
Speed
7.483 km/s
True Right ascension
01h 48m 38s
True Declination
29° 30' 34"
Sunlit
Object was in daylight at epoch
Visualization orbit readout
Latitude
Unknown
Longitude
Unknown
Altitude
Unknown
Speed
Unknown
Apparent Right ascension
Unknown
Apparent Declination
Unknown
Sunlit
N/A
Visualization observer readout
Local Sidereal Time
12:51:15
Azimuth
Unknown
Elevation
Unknown
Doppler factor
Unknown
Orbital elements
Apogee altitude
755.909 km
Perigee altitude
699.467 km
Semi-major axis
7,105.825 km
Eccentricity
0.00397
Inclination
74.0174°
RAAN
17.8239°
Arg. of periapsis
137.0364°
True anomaly
253.88173°
Mean anomaly
254.3193°
Eccentric anomaly
254.10046°
Mean motion
3.62344 °/min
Orbital period
99.35 mins
BSTAR
0.00018119

Documentation

Showing up to 5 results
|